This demonstration page uses our WeatherBlox Daily Observations layout. Learn more.

Left ArrowRight Arrow

Hourly Observations for October 4, 2018

Temp ( °F °C ) Dew Point ( °F °C ) Humidity (%) Winds ( mph kmh ) Pressure ( in mb ) Visibility ( mi km ) Precip ( " mm )
12:53 am 00:53 Clear 47 8.3 36 2.2 66 66 N 18 30 30.12 1020 10 16 0.00 0.00
1:53 am 01:53 Clear 45 7.2 34 1.1 66 66 N 26 43 30.15 1021 10 16 0.00 0.00
2:53 am 02:53 Clear 43 6.1 30 -1.1 60 60 N 20 31 30.19 1022 10 16 0.00 0.00
3:53 am 03:53 Clear 40 4.4 28 -2.2 63 63 NNE 14 22 30.22 1024 10 16 0.00 0.00
4:53 am 04:53 Clear 40 4.4 27 -2.8 60 60 NNE 17 28 30.23 1024 10 16 0.00 0.00
5:53 am 05:53 Mostly Clear 40 4.4 27 -2.8 60 60 NNE 13 20 30.26 1025 10 16 0.00 0.00
6:53 am 06:53 Clear 39 3.9 27 -2.8 62 62 NNE 16 26 30.28 1025 10 16 0.00 0.00
7:53 am 07:53 Mostly Cloudy 38 3.3 27 -2.8 65 65 NNE 17 28 30.28 1025 10 16 0.00 0.00
8:53 am 08:53 Mostly Cloudy 39 3.9 27 -2.8 62 62 NE 20 31 30.27 1025 10 16 0.00 0.00
9:53 am 09:53 Cloudy 40 4.4 28 -2.2 63 63 NE 14 22 30.31 1026 10 16 0.00 0.00
10:53 am 10:53 Mostly Cloudy 42 5.6 28 -2.2 58 58 E 10 17 30.30 1026 10 16 0.00 0.03
11:53 am 11:53 Cloudy 43 6.1 30 -1.1 60 60 NNE 9 15 30.29 1026 10 16 0.00 0.00
12:53 pm 12:53 Cloudy with Light Rain 43 6.1 33 0.6 68 68 ENE 12 19 30.23 1024 10 16 0.00 0.03
1:53 pm 13:53 Cloudy with Light Rain 43 6.1 34 1.1 71 71 NE 12 19 30.21 1023 10 16 0.00 0.03
2:53 pm 14:53 Cloudy 43 6.1 34 1.1 71 71 ENE 10 17 30.18 1022 10 16 0.00 0.03
3:53 pm 15:53 Cloudy 43 6.1 34 1.1 71 71 NE 10 17 30.16 1021 10 16 0.00 0.00
4:53 pm 16:53 Cloudy 43 6.1 35 1.7 74 74 NE 9 15 30.12 1020 10 16 0.00 0.03
5:14 pm 17:14 Cloudy 43 6 36 2 76 76 NE 8 13 30.15 1021 10 16 0.00 0.00
5:53 pm 17:53 Cloudy 43 6.1 35 1.7 74 74 ENE 7 11 30.11 1020 10 16 0.00 0.00
6:53 pm 18:53 Cloudy 43 6.1 36 2.2 76 76 ENE 6 9 30.09 1019 8 13 0.00 0.00
7:53 pm 19:53 Cloudy 43 6.1 37 2.8 80 80 NNE 6 9 30.08 1019 10 16 0.00 0.03
8:53 pm 20:53 Cloudy 42 5.6 37 2.8 82 82 NW 5 7 30.11 1020 10 16 0.00 0.00
9:53 pm 21:53 Cloudy with Mist and Fog 40 4.4 39 3.9 97 97 NNW 6 9 30.11 1020 6 10 0.00 0.00
10:49 pm 22:49 Cloudy 41 5 39 4 93 93 SE 5 7 30.09 1019 8 13 0.00 0.00
10:53 pm 22:53 Mostly Cloudy 41 5 39 3.9 93 93 SSE 3 6 30.05 1018 8 13 0.00 0.00
11:53 pm 23:53 Cloudy 41 5 39 3.9 93 93 S 3 6 30.04 1017 9 14 0.00 0.00

Powered by AerisWeather